Regional Weather Roundup
Issued by NWS

Home | Current Version | Previous Version | Text Only | Print | Product List | Glossary On
Versions: 1 2 3 4 5 6 7 8 9 10 11 12 13 14 15 16 17 18 19 20 21 22 23 24 25 26 27 28 29 30 31 32 33 34 35 36 37 38 39 40 41 42 43 44 45 46 47 48 49 50
079
ASUS44 KJAN 211903
RWRMS

MISSISSIPPI HOURLY WEATHER ROUNDUP
NATIONAL WEATHER SERVICE JACKSON MS
200 PM CDT THU AUG 21 2014

NOTE: "FAIR: INDICATES FEW OR NO CLOUDS BELOW 12,000 FEET WITH NO
SIGNIFICANT WEATHER AND/OR OBSTRUCTIONS TO VISIBILITY.

MSZ001>002-007>008-010>013-018>021-025>028-034>036-212000-
NORTHWEST MISSISSIPPI

CITY           SKY/WX    TMP DP  RH WIND       PRES   REMARKS
CLARKSDALE     FAIR      91  75  59 CALM      30.10F HX 102
CLEVELAND      MOCLDY    92  77  60 SW7       30.09F HX 105
GREENWOOD      MOSUNNY   92  73  53 SW8       30.10F HX 100
GREENVILLE     SUNNY     92  73  53 SW8       30.09F HX 100
GRENADA        FAIR      90  72  55 SW5       30.11F HX  96
OLIVE BRANCH   PTSUNNY   91  75  59 SW10      30.10F HX 102
OXFORD         FAIR      90  72  55 SW6       30.13F HX  96
TUNICA         PTCLDY    91  72  52 SW10      30.10F HX  98
$$

MSZ003>006-009-014>017-022>024-029>033-037>039-212000-
NORTHEAST MISSISSIPPI

CITY           SKY/WX    TMP DP  RH WIND       PRES   REMARKS
BELMONT        MOCLDY    89  75  63 SW6       30.13F HX  99
COLUMBUS AFB   MOSUNNY   92  72  51 W7        30.11F HX  99
CORINTH        FAIR      90  73  58 VRB5      30.11F HX  98
GOLDN TRIANGLE PTSUNNY   97  72  44 NW9       30.12F HX 105
STARKVILLE     FAIR      91  70  49 W3        30.11F HX  97
TUPELO         SUNNY     93  70  46 VRB6      30.11F HX  99
$$

MSZ040-058-212000-
CENTRAL MISSISSIPPI

CITY           SKY/WX    TMP DP  RH WIND       PRES   REMARKS
JACKSON INTL   PTSUNNY   93  72  50 CALM      30.12F HX 101
JACKSON HAWKNS MOSUNNY   94  73  50 VRB3      30.12F HX 103
MERIDIAN KEY   MOSUNNY   93  68  43 W6        30.12F HX  97
MERIDIAN NAS   MOSUNNY   94  70  45 VRB7      30.12F HX 100
RAYMOND        FAIR      93  86  79 CALM      30.12F HX 125
VICKSBURG      MOSUNNY   94  74  52 NW6       30.10F HX 104
$$

MSZ059>079-212000-
SOUTH MISSISSIPPI

CITY           SKY/WX    TMP DP  RH WIND       PRES   REMARKS
BROOKHAVEN     FAIR      91  73  55 E3        30.14F HX 100
HATTIESBURG    MOSUNNY   94  69  44 SW7       30.11F HX  99
MCCOMB         PTSUNNY   91  71  51 SE7       30.12F HX  97
NATCHEZ        MOSUNNY   91  75  59 SW5       30.11F HX 102
PINE BELT      PTSUNNY   93  72  49 SW5       30.14F HX 100
$$

MSZ080>082-212000-
COASTAL MISSISSIPPI

CITY           SKY/WX    TMP DP  RH WIND       PRES   REMARKS
BAY ST LOUIS   PTSUNNY  N/A N/A N/A CALM      30.12F
BILOXI         MOSUNNY   91  75  58 S9        30.12F HX 102
PASCAGOULA     MOSUNNY   93  75  55 SW6       30.11F HX 104
GULFPORT       PTSUNNY   93  73  52 S9        30.11F HX 102
$$



USA.gov is the U.S. government's official web portal to all federal, state and local government web resources and services.